Temp_Advection
nan nan nan nan nan nan nan nan nan nan nan nan nan nan nan nan nan nan nan nan nan nan nan nan nan nan nan
nan -1 -1 -0 -0 -0 -0 -0 -0 -0 0 0 -0 0 0 0 -0 -0 0 1 1 1 -1 0 0 0 nan
nan -1 -1 -0 -0 -0 -0 0 0 0 0 0 0 -0 -0 -0 0 0 1 1 0 -0 0 1 0 0 nan
nan -1 -1 -0 -0 -0 -0 0 -0 0 0 0 0 0 -0 -0 -0 0 0 0 0 0 1 1 0 0 nan
nan -1 -1 -1 -0 -0 -0 -0 0 0 0 0 1 0 -0 -0 -0 -0 0 0 1 0 1 1 1 1 nan
nan -0 -1 -1 -1 -0 -0 -0 0 0 0 0 0 1 0 0 0 0 1 1 0 1 1 2 2 1 nan
nan -0 -1 -1 0 -0 0 -0 0 0 0 1 0 0 0 0 0 0 1 1 0 2 3 2 1 1 nan
nan -0 -1 -0 0 0 0 0 0 0 0 0 1 1 1 1 1 1 2 3 3 3 2 1 0 0 nan
nan -0 -0 -0 -1 -0 0 0 0 0 1 -0 -0 0 1 1 1 1 2 2 2 1 0 1 0 0 nan
nan -0 -0 -0 -0 -0 -0 0 0 0 0 -0 -0 -1 -1 2 1 1 0 0 0 1 0 0 0 1 nan
nan -0 -0 -0 -0 -0 0 -0 -0 -0 -0 0 -1 -0 -1 -1 1 2 1 1 1 0 1 1 1 1 nan
nan -0 -0 -0 -0 -0 -1 -0 0 -0 -0 0 -0 -0 -1 -3 -1 1 1 1 1 1 1 1 1 0 nan
nan -0 -0 -1 -1 -0 -1 -0 0 -0 -0 1 0 0 0 -1 -2 -2 -0 0 1 1 1 0 0 0 nan
nan -0 -0 -0 -0 -0 -1 -0 -0 -0 0 1 1 1 1 0 0 -0 -0 -0 0 0 1 0 0 0 nan
nan -0 -0 -0 -0 -0 -1 -0 -0 -0 -0 0 0 1 1 1 2 1 1 1 0 0 0 1 0 0 nan
nan -0 -0 -0 -0 -0 -1 -1 -0 -0 0 -0 0 0 1 1 1 1 1 1 0 1 1 1 0 0 nan
nan nan nan nan nan nan nan nan nan nan nan nan nan nan nan nan nan nan nan nan nan nan nan nan nan nan nan
Wind_Speed
24 12 11 14 10 5 6 9 10 8 8 7 6 8 7 11 13 37 41 47 38 38 41 39 36 39 36
21 20 12 10 12 8 5 6 9 10 8 7 7 9 11 12 16 25 22 37 44 47 43 36 38 41 40
21 18 11 7 7 9 6 4 4 9 11 10 10 11 12 14 16 19 28 29 45 44 33 41 35 43 43
22 23 18 12 7 2 1 4 4 5 9 13 13 12 10 11 14 18 23 28 30 35 40 43 44 48 48
19 19 19 15 10 12 10 6 8 7 9 13 12 11 8 10 14 17 21 25 30 40 53 49 52 52 47
17 16 13 13 14 14 14 9 10 11 10 9 8 7 6 10 13 15 18 20 26 52 49 52 58 47 32
18 19 17 18 7 15 15 20 10 13 12 14 9 5 4 3 5 9 16 26 38 51 52 57 42 34 26
22 18 19 25 14 6 13 21 18 20 16 24 17 19 17 15 10 10 27 45 48 54 45 34 30 21 15
27 24 19 20 23 17 10 14 25 25 22 26 26 27 24 26 25 30 36 38 35 32 29 25 23 15 14
22 29 25 21 17 21 17 17 25 23 26 23 28 24 18 21 23 23 25 26 25 23 22 17 15 16 16
19 23 24 25 27 20 19 18 24 18 26 24 32 25 17 25 22 22 24 25 21 17 17 17 17 15 12
21 21 24 24 25 26 25 19 18 22 17 27 27 29 25 31 26 23 20 20 19 19 19 19 16 12 11
22 22 22 21 23 24 27 25 20 21 16 30 25 28 24 26 31 31 27 21 19 18 16 14 12 12 10
22 19 16 18 20 21 27 24 20 21 21 26 27 31 23 21 23 29 29 23 25 20 18 16 14 13 10
22 21 19 20 20 21 23 28 25 25 24 28 27 25 27 24 27 29 30 24 25 24 20 17 14 11 11
25 23 23 22 20 22 23 28 26 26 25 29 32 27 29 24 22 27 28 25 22 23 19 16 15 15 13
25 24 23 20 22 23 25 28 26 27 27 30 30 30 31 29 24 24 27 26 23 24 20 17 15 15 12
Wind_Direction
274 280 329 305 297 305 243 228 227 234 256 227 206 191 213 197 198 203 216 196 198 206 205 197 198 196 201
276 265 300 310 276 291 230 209 225 225 230 233 205 200 189 185 195 194 207 203 216 205 206 202 197 199 203
262 254 259 285 273 268 230 211 207 202 197 194 191 198 194 200 201 204 197 212 218 197 216 202 197 198 206
255 254 249 250 269 219 294 208 229 196 191 193 186 179 193 204 207 209 210 211 199 213 209 198 195 201 202
253 258 250 252 252 256 246 243 194 211 177 177 180 180 197 223 228 220 218 213 204 217 202 192 196 198 201
250 249 247 241 242 245 224 216 170 197 199 174 180 167 207 217 217 225 213 205 208 203 190 195 193 189 188
245 249 239 218 208 228 221 214 205 167 184 138 147 135 114 89 151 152 176 184 195 188 188 184 180 181 174
236 253 240 220 225 203 210 205 208 176 171 137 141 130 128 123 141 160 178 180 190 185 165 164 160 161 174
232 237 239 226 236 230 218 201 177 171 158 148 143 136 136 127 124 135 143 145 146 147 159 168 162 166 181
240 232 236 234 229 240 224 208 198 181 169 160 155 147 120 132 144 149 149 147 145 146 153 163 177 186 181
242 233 228 228 224 210 213 215 207 193 181 184 173 164 152 149 150 158 163 162 169 170 175 177 172 172 189
238 234 229 224 222 221 219 212 209 220 218 202 191 185 166 161 158 168 172 174 176 171 167 170 169 174 183
235 236 235 232 224 222 217 217 209 210 216 201 204 194 197 186 179 176 172 174 174 176 171 176 173 184 190
233 233 226 213 209 215 214 213 215 206 208 208 196 198 195 200 197 190 185 178 182 181 178 183 176 173 179
229 224 215 211 210 211 214 214 209 197 189 197 199 195 198 195 191 195 190 189 188 185 186 182 176 180 188
222 221 216 212 210 209 210 212 205 203 198 194 194 187 193 182 194 195 194 193 188 189 187 183 183 186 185
217 216 214 206 208 206 202 205 205 200 194 190 189 189 183 180 183 194 199 193 189 183 176 180 187 181 181
Height
1390 1392 1391 1390 1390 1392 1392 1394 1398 1398 1400 1402 1405 1410 1414 1417 1421 1429 1430 1441 1451 1459 1465 1473 1480 1487 1493
1386 1388 1390 1390 1391 1390 1392 1394 1394 1396 1398 1402 1405 1410 1414 1418 1425 1428 1432 1436 1441 1450 1459 1466 1474 1479 1488
1384 1386 1388 1388 1390 1391 1390 1390 1395 1397 1399 1401 1404 1409 1412 1418 1422 1423 1429 1433 1432 1445 1453 1462 1470 1476 1484
1384 1384 1386 1388 1388 1388 1391 1392 1395 1395 1397 1402 1403 1406 1410 1414 1417 1421 1426 1430 1434 1440 1449 1457 1464 1471 1479
1381 1381 1383 1385 1386 1388 1390 1394 1393 1396 1399 1401 1402 1404 1407 1409 1412 1415 1418 1423 1429 1433 1440 1451 1458 1465 1474
1377 1378 1380 1382 1385 1386 1388 1391 1392 1396 1399 1399 1401 1402 1406 1406 1409 1410 1413 1416 1423 1428 1437 1446 1454 1461 1474
1372 1374 1377 1380 1381 1383 1386 1390 1392 1394 1397 1398 1402 1400 1402 1402 1404 1406 1408 1417 1424 1428 1434 1444 1453 1462 1473
1366 1370 1373 1376 1378 1379 1385 1387 1391 1393 1396 1398 1403 1404 1408 1410 1408 1409 1412 1417 1422 1429 1438 1447 1457 1465 1471
1361 1365 1368 1371 1374 1377 1380 1383 1386 1392 1394 1397 1403 1406 1410 1410 1414 1417 1420 1426 1431 1435 1442 1453 1459 1463 1469
1355 1358 1361 1365 1370 1374 1378 1381 1387 1388 1389 1395 1401 1404 1408 1413 1416 1423 1428 1432 1436 1441 1448 1454 1459 1463 1467
1353 1355 1359 1363 1367 1371 1375 1378 1382 1385 1388 1393 1397 1401 1405 1413 1420 1425 1429 1433 1438 1443 1448 1453 1458 1463 1467
1348 1350 1354 1358 1363 1367 1371 1374 1378 1384 1386 1391 1394 1400 1405 1412 1417 1425 1430 1435 1438 1443 1447 1453 1457 1459 1464
1341 1345 1348 1353 1359 1363 1367 1371 1374 1379 1385 1388 1394 1399 1404 1408 1413 1422 1427 1434 1436 1442 1447 1451 1455 1459 1462
1337 1341 1345 1348 1352 1357 1362 1366 1370 1375 1381 1386 1391 1397 1401 1406 1412 1417 1424 1428 1433 1440 1446 1452 1453 1456 1459
1333 1337 1341 1345 1349 1353 1357 1362 1366 1370 1377 1383 1388 1393 1399 1405 1410 1416 1420 1426 1432 1437 1443 1446 1450 1454 1458
1328 1333 1337 1342 1346 1350 1355 1359 1362 1367 1372 1377 1383 1390 1397 1404 1410 1413 1420 1425 1430 1435 1441 1446 1449 1454 1458
1323 1329 1333 1338 1342 1346 1350 1355 1359 1364 1369 1375 1380 1386 1392 1400 1408 1414 1418 1423 1429 1435 1440 1446 1450 1454 1458